Wind_Speed
18 17 14 12 11 10 10 10 11 13 14 15 15 16 18 19 20 21 21 20 19 17 16 15 14 15 16 17 17 16 15 14 14 14 13 10 8 7 6 6 7 7 7
18 18 16 14 12 12 11 11 12 12 13 14 15 16 17 18 19 20 21 21 20 19 17 16 15 16 18 19 19 18 16 15 15 15 14 12 10 8 7 7 8 8 8
17 18 17 15 13 13 13 13 12 13 13 14 14 14 15 15 17 19 20 21 20 19 17 16 15 16 19 21 21 19 18 17 17 16 15 13 11 10 9 9 9 9 8
17 18 18 17 15 14 14 14 14 14 13 13 13 12 12 13 15 17 18 19 19 19 18 16 15 16 18 20 21 21 20 19 19 18 17 15 13 13 11 10 10 10 9
19 19 20 19 17 15 16 17 16 15 14 13 13 12 11 11 13 15 16 18 19 19 18 16 15 14 15 18 20 21 21 21 20 19 18 16 16 15 13 12 11 10 9
20 20 21 20 18 16 17 18 18 17 16 14 14 12 11 11 11 12 14 16 18 19 18 17 15 14 14 15 18 19 20 20 20 20 19 18 17 15 13 12 10 9 8
22 21 22 22 20 19 19 20 19 19 17 16 15 14 12 11 10 10 11 13 15 16 17 17 16 15 15 15 16 17 18 18 18 19 18 17 16 14 13 11 9 8 7
24 24 24 24 23 21 21 21 21 21 20 19 17 15 13 12 9 8 9 10 13 14 15 15 16 15 15 15 16 16 15 15 15 15 15 15 14 13 13 11 10 8 7
26 25 24 25 25 24 22 20 20 23 22 21 19 18 15 13 10 8 7 8 10 11 12 13 14 15 15 15 16 15 15 14 14 13 13 13 12 13 13 12 10 9 8
28 27 26 26 26 25 22 21 18 19 21 21 20 19 19 17 14 10 8 7 7 9 10 11 13 16 17 17 17 16 16 15 15 15 15 14 13 13 14 14 13 12 11
28 26 26 26 27 25 23 20 19 19 20 21 21 20 20 20 18 14 11 9 8 8 9 10 12 14 16 17 17 17 17 16 16 16 16 16 16 15 16 17 18 17 15
26 25 25 26 26 25 23 22 21 20 20 21 23 23 22 22 22 18 15 13 11 10 9 10 11 12 14 15 16 17 17 17 16 16 17 17 17 17 18 19 20 20 19
24 24 23 24 24 23 23 23 22 22 21 23 23 24 24 24 24 22 20 17 15 13 12 12 12 12 13 14 14 15 15 16 15 15 15 16 16 17 18 19 20 21 21
21 21 20 19 20 21 21 22 23 22 24 25 25 25 26 27 26 25 23 21 18 17 16 15 15 15 14 15 15 15 15 15 15 15 15 15 16 17 18 19 19 20 21
18 17 16 16 16 17 18 19 20 21 22 24 26 26 27 29 29 28 27 25 22 20 18 17 17 17 17 17 17 17 17 16 16 16 17 17 17 17 17 17 18 19 20
17 16 16 15 15 16 17 19 20 21 22 23 24 26 27 29 30 31 30 29 27 24 22 20 18 18 18 18 18 18 18 18 17 17 18 18 18 18 18 18 18 19 20
18 17 17 16 16 17 17 19 19 20 22 23 24 25 27 29 31 32 33 32 30 28 25 24 21 20 20 20 19 19 19 19 18 18 18 19 19 19 19 19 20 20 21
19 19 19 18 18 18 18 19 19 19 20 21 23 25 25 29 31 33 34 34 32 31 28 26 24 23 22 22 22 21 20 20 20 19 19 20 20 20 20 20 21 21 22
19 20 21 21 20 20 20 20 20 20 20 20 21 23 23 25 29 33 35 34 32 32 30 29 27 26 25 25 25 25 23 22 22 21 21 21 21 22 22 22 22 23 23
20 20 21 22 22 23 23 23 23 23 22 22 21 21 22 24 26 30 33 34 33 33 31 29 28 27 27 26 27 28 27 25 24 25 24 24 24 24 24 24 25 25 25
21 21 21 22 23 23 24 24 24 24 23 23 22 20 20 22 23 24 28 31 33 32 32 30 28 28 27 28 28 29 29 28 27 27 28 27 27 27 27 27 26 26 26
23 23 23 22 23 23 24 25 25 25 24 23 22 21 20 20 21 22 23 26 29 30 31 31 30 29 29 29 30 30 30 29 29 30 30 30 29 29 28 27 26 26 26
25 25 25 24 24 24 25 26 26 26 26 25 25 23 22 21 21 21 21 22 25 27 30 32 31 30 30 30 30 30 29 29 30 31 31 30 30 29 29 28 27 27 27
25 26 26 26 25 25 26 26 27 27 27 26 26 25 24 23 22 22 22 22 23 25 27 29 31 32 31 30 29 29 29 29 29 29 32 30 29 29 29 29 28 28 27
25 26 26 26 26 26 26 26 26 27 27 27 27 26 25 25 24 24 23 23 23 23 24 26 28 30 32 33 32 32 32 32 31 30 32 31 30 30 29 30 29 28 28
23 23 24 25 25 26 26 26 26 26 27 27 27 27 27 26 25 24 24 24 24 24 24 25 26 28 30 31 33 33 33 33 33 32 34 33 31 32 31 31 32 30 29
Wind_Direction
328 328 321 305 287 269 260 254 248 241 240 240 240 239 240 241 243 243 244 245 247 251 256 256 251 239 225 221 219 215 209 208 210 209 213 227 247 267 276 276 276 275 273
326 327 325 314 291 271 262 257 250 244 242 244 245 243 244 247 247 246 245 246 248 251 253 253 248 236 224 221 221 219 218 218 217 217 221 234 254 270 277 271 270 271 269
323 322 321 316 296 274 264 259 251 245 243 246 246 245 247 250 251 248 245 245 246 245 248 248 243 232 223 220 220 221 223 224 224 225 229 240 256 270 277 270 267 267 265
318 316 315 312 300 279 263 257 251 246 244 246 245 245 249 253 254 249 245 244 242 241 244 245 238 229 224 221 222 224 226 228 230 231 236 245 258 270 274 268 265 263 260
312 308 308 305 299 282 264 255 251 247 243 242 241 243 249 257 261 253 246 242 240 242 244 242 233 226 223 224 225 227 229 231 233 235 239 247 257 266 268 263 260 255 250
303 299 302 302 296 282 264 254 249 246 241 239 238 242 250 264 270 259 247 241 240 242 242 240 234 230 230 230 229 229 230 232 235 237 242 248 254 258 259 254 247 240 237
297 294 294 295 293 286 267 253 247 244 239 237 237 240 246 260 268 261 248 241 238 238 240 239 237 236 236 235 231 229 231 235 237 240 243 246 248 248 245 237 230 226 230
293 291 289 288 288 288 279 257 244 239 236 235 235 235 240 248 257 255 246 238 233 233 234 234 233 234 238 237 233 231 232 235 237 239 240 240 239 235 229 224 223 230 242
291 288 285 284 284 286 282 264 249 238 234 233 231 230 229 234 239 243 240 234 229 227 227 227 227 229 233 234 232 230 230 232 235 236 237 237 235 229 224 224 230 241 253
289 285 281 279 279 281 277 270 257 247 239 235 229 227 226 226 229 230 233 231 228 226 224 224 224 226 228 231 231 231 232 236 238 238 239 240 241 238 233 233 239 248 257
289 284 278 274 274 274 272 266 259 255 248 242 234 228 226 224 226 226 226 226 226 226 226 225 224 224 226 229 231 233 236 239 241 241 241 242 244 245 244 243 245 250 256
289 285 278 272 269 268 264 261 257 256 256 251 243 234 228 225 225 224 224 225 227 229 229 229 229 228 229 232 234 236 238 240 241 241 242 243 245 247 248 248 248 250 253
290 285 278 271 266 262 259 258 256 257 257 257 252 243 233 228 227 226 227 227 229 232 233 234 235 235 235 236 237 239 239 239 240 241 243 245 247 249 249 250 250 251 252
290 285 277 270 262 258 256 257 257 259 258 258 255 250 239 232 229 228 229 229 230 233 236 238 241 241 240 240 240 242 241 242 244 245 248 251 253 254 253 252 252 252 252
287 284 277 271 263 258 257 259 260 261 260 259 257 252 244 237 233 230 229 229 231 233 235 238 243 246 245 244 245 246 245 245 249 252 255 256 257 258 258 257 256 256 254
280 279 277 273 268 264 263 265 265 263 261 259 258 253 248 242 237 233 231 229 231 234 236 238 243 247 249 248 246 248 248 248 251 255 258 258 259 260 260 261 261 261 260
276 275 274 271 268 267 267 269 269 268 264 259 257 254 247 243 240 237 235 232 231 234 237 241 243 246 248 249 249 248 250 251 252 255 259 260 260 260 260 261 262 263 263
278 273 271 270 269 267 268 270 271 272 271 264 258 255 250 242 240 237 236 233 232 236 240 244 246 246 247 249 250 250 251 253 255 255 259 261 261 260 260 261 263 264 264
282 276 271 270 269 267 267 269 270 271 273 270 263 259 254 247 243 239 238 237 238 239 240 244 248 249 248 248 250 252 252 254 258 259 260 262 263 263 263 263 263 263 264
284 280 274 270 268 266 265 267 267 268 269 269 268 264 258 254 250 241 238 238 240 241 242 245 247 249 250 248 249 252 254 256 259 262 262 262 264 264 265 263 263 263 265
285 283 278 273 270 267 265 264 264 265 267 267 267 266 261 255 252 247 243 241 242 241 241 243 246 249 250 251 250 252 255 258 261 261 261 261 262 263 265 264 263 263 264
286 284 281 277 273 269 267 264 262 262 263 264 264 263 262 259 255 253 250 246 243 242 240 242 245 247 250 252 253 254 255 259 260 259 258 259 260 261 262 261 261 262 263
285 284 281 277 274 270 268 266 263 262 262 262 263 263 263 262 259 256 254 252 251 247 245 245 246 247 249 252 255 256 257 257 257 258 258 257 257 258 259 259 260 260 261
284 282 280 277 273 270 269 268 265 263 263 262 262 262 262 261 259 258 257 256 255 253 251 250 248 249 250 251 253 255 257 258 258 256 257 255 254 253 255 257 259 259 259
283 280 277 275 272 269 269 268 266 264 263 262 261 260 261 260 259 258 257 256 256 256 255 254 252 251 250 250 250 252 255 257 256 254 255 254 252 251 252 255 256 257 259
285 281 277 274 271 268 266 265 264 262 261 260 258 258 258 258 258 257 256 256 256 258 258 257 256 255 252 250 249 249 249 250 252 251 254 254 250 250 250 253 256 256 257
Height
5854 5852 5852 5851 5851 5851 5852 5853 5853 5854 5854 5855 5857 5858 5859 5861 5863 5865 5867 5869 5871 5872 5874 5875 5876 5877 5879 5881 5883 5885 5888 5890 5892 5894 5896 5897 5898 5899 5900 5900 5900 5900 5900
5852 5851 5850 5850 5849 5849 5850 5851 5851 5852 5852 5853 5854 5855 5856 5857 5859 5861 5863 5865 5867 5869 5871 5872 5873 5874 5876 5879 5881 5884 5886 5888 5890 5892 5894 5896 5897 5898 5898 5898 5898 5898 5899
5850 5849 5848 5848 5848 5848 5848 5849 5849 5850 5850 5851 5851 5852 5853 5854 5855 5857 5859 5862 5864 5866 5867 5869 5870 5871 5873 5876 5879 5882 5884 5887 5889 5891 5893 5894 5895 5896 5897 5897 5897 5897 5897
5848 5847 5846 5846 5846 5846 5846 5846 5847 5847 5848 5848 5849 5849 5850 5851 5852 5854 5856 5858 5860 5862 5864 5865 5867 5868 5870 5873 5876 5879 5882 5884 5886 5888 5890 5892 5893 5894 5895 5895 5895 5895 5895
5846 5845 5844 5843 5843 5843 5843 5844 5844 5845 5845 5846 5846 5847 5848 5848 5849 5850 5852 5854 5856 5858 5861 5863 5864 5866 5868 5870 5873 5876 5878 5881 5883 5886 5888 5890 5891 5892 5892 5893 5893 5893 5894
5843 5842 5841 5840 5840 5840 5840 5840 5841 5841 5842 5843 5844 5845 5845 5846 5846 5847 5848 5850 5853 5855 5858 5860 5862 5864 5866 5868 5870 5873 5875 5878 5880 5882 5885 5887 5888 5889 5890 5891 5891 5892 5892
5839 5838 5837 5836 5836 5836 5836 5836 5837 5838 5839 5840 5841 5842 5843 5844 5844 5845 5846 5847 5850 5852 5855 5858 5860 5862 5864 5866 5868 5871 5873 5875 5877 5879 5881 5883 5885 5886 5887 5889 5890 5890 5891
5834 5834 5833 5832 5832 5832 5831 5831 5832 5833 5835 5836 5838 5839 5840 5842 5842 5843 5844 5845 5847 5849 5852 5854 5857 5860 5862 5864 5866 5869 5871 5873 5875 5877 5879 5881 5882 5883 5885 5887 5888 5889 5890
5828 5828 5828 5827 5827 5827 5827 5827 5827 5829 5830 5832 5834 5836 5838 5839 5840 5841 5842 5843 5845 5847 5849 5851 5854 5857 5859 5862 5864 5866 5868 5870 5872 5874 5876 5878 5880 5881 5883 5885 5886 5887 5888
5821 5821 5821 5821 5821 5821 5821 5822 5822 5824 5825 5827 5829 5832 5835 5836 5838 5839 5841 5842 5843 5845 5846 5849 5851 5854 5856 5859 5861 5863 5865 5867 5869 5871 5873 5875 5877 5878 5880 5882 5883 5885 5886
5814 5813 5814 5814 5815 5815 5816 5817 5818 5819 5821 5823 5824 5827 5830 5833 5835 5837 5838 5840 5842 5843 5845 5846 5849 5851 5853 5855 5858 5860 5862 5864 5866 5868 5870 5871 5873 5875 5876 5878 5880 5881 5882
5807 5806 5806 5807 5808 5809 5810 5811 5812 5814 5816 5817 5819 5822 5825 5828 5831 5833 5835 5837 5839 5841 5843 5844 5846 5848 5850 5852 5854 5856 5859 5861 5863 5864 5866 5867 5869 5871 5872 5874 5875 5877 5878
5801 5800 5800 5800 5801 5802 5804 5805 5807 5809 5810 5812 5813 5816 5819 5823 5826 5829 5832 5834 5836 5838 5840 5842 5843 5845 5847 5849 5851 5853 5855 5857 5859 5861 5862 5864 5865 5866 5868 5869 5870 5872 5873
5795 5794 5794 5794 5795 5796 5798 5799 5801 5803 5804 5805 5807 5809 5813 5817 5821 5824 5827 5830 5832 5835 5837 5839 5840 5842 5844 5846 5848 5850 5852 5854 5855 5857 5858 5859 5860 5862 5863 5864 5865 5867 5868
5791 5790 5789 5790 5790 5791 5793 5794 5795 5797 5798 5799 5800 5802 5806 5810 5814 5818 5822 5825 5828 5830 5833 5835 5836 5838 5840 5842 5844 5846 5848 5850 5851 5853 5854 5855 5856 5857 5858 5859 5860 5861 5863
5787 5786 5786 5786 5787 5787 5788 5789 5790 5792 5792 5793 5794 5797 5799 5803 5807 5812 5815 5819 5823 5826 5828 5830 5832 5834 5836 5838 5840 5841 5843 5845 5847 5848 5849 5850 5851 5852 5853 5854 5855 5857 5858
5782 5782 5782 5782 5782 5783 5783 5784 5785 5786 5787 5788 5789 5790 5793 5796 5799 5804 5808 5812 5816 5820 5822 5825 5827 5829 5831 5833 5834 5837 5838 5840 5842 5843 5844 5845 5847 5848 5849 5850 5851 5852 5853
5777 5777 5777 5777 5778 5778 5779 5779 5780 5780 5781 5782 5783 5785 5786 5789 5792 5796 5800 5804 5808 5812 5815 5818 5821 5824 5825 5827 5829 5831 5833 5835 5836 5838 5839 5840 5842 5843 5844 5845 5846 5847 5848
5772 5772 5772 5772 5773 5773 5774 5774 5775 5775 5776 5777 5778 5779 5780 5782 5785 5788 5792 5797 5801 5804 5808 5811 5813 5816 5819 5821 5823 5825 5827 5829 5831 5832 5833 5835 5836 5837 5838 5839 5840 5841 5842
5767 5766 5766 5766 5767 5767 5768 5769 5769 5770 5771 5772 5773 5774 5775 5776 5778 5781 5784 5789 5793 5797 5800 5803 5806 5808 5811 5813 5816 5817 5820 5822 5825 5826 5827 5828 5829 5831 5832 5832 5834 5834 5835
5761 5760 5760 5760 5760 5761 5761 5762 5763 5764 5765 5766 5767 5768 5769 5771 5772 5775 5778 5781 5785 5789 5792 5795 5798 5800 5803 5805 5808 5810 5812 5814 5817 5818 5819 5821 5822 5823 5824 5825 5826 5827 5828
5754 5754 5753 5753 5754 5754 5755 5755 5757 5758 5759 5761 5762 5763 5764 5766 5767 5769 5771 5774 5777 5781 5784 5787 5790 5792 5795 5797 5799 5802 5804 5807 5808 5809 5811 5812 5814 5816 5817 5818 5819 5820 5821
5747 5747 5746 5746 5747 5747 5747 5748 5750 5751 5753 5755 5756 5758 5759 5760 5762 5764 5766 5768 5770 5773 5776 5779 5782 5785 5787 5789 5791 5793 5795 5798 5799 5800 5802 5804 5806 5808 5809 5810 5811 5812 5813
5741 5740 5739 5739 5740 5740 5740 5741 5742 5744 5746 5748 5749 5751 5753 5755 5757 5758 5760 5762 5764 5766 5768 5771 5774 5776 5779 5781 5783 5785 5786 5788 5791 5792 5792 5795 5798 5800 5802 5802 5804 5804 5806
5734 5733 5732 5732 5732 5732 5733 5734 5736 5737 5738 5740 5742 5744 5746 5748 5750 5752 5754 5755 5757 5759 5761 5763 5765 5767 5770 5772 5774 5776 5778 5779 5781 5783 5784 5787 5790 5791 5794 5794 5796 5797 5798
5726 5725 5725 5724 5724 5725 5726 5727 5728 5729 5731 5733 5734 5736 5738 5740 5742 5744 5747 5749 5750 5752 5754 5755 5757 5759 5761 5763 5765 5767 5769 5771 5772 5775 5776 5778 5781 5783 5785 5787 5787 5789 5790